Location: Stockholm
(59.3293°N, 18.0686°E)
Time: 08:09:22
(UTC+02:00)

ISS - Pass Details

Date: 28 March 2019
Orbit: 408 x 410 km, 51.6° (Epoch: 25 April)

Event Time Altitude Azimuth Distance (km) Brightness Sun altitude
Rises 20:55:30 0° 257° (WSW) 2,338 0.5 -18.5°
Reaches altitude 10° 20:57:57 10° 239° (WSW) 1,475 -0.8 -18.7°
Enters shadow 20:59:22 17° 217° (SW) 1,121 -1.7 -18.9°
